| time (UTC) | temp C | wind direction | speed KPH | gust KPH | rain 1hr cm | rain 24hr cm | rain mn cm | humidity % | barometer mb |
| 20260902043017 | 22 | 169 | 0.0 | 9.7 | 0.03 | 0.03 | 0.03 | 86 | 1010.1 |
| 20260902041530 | 24 | 302 | 6.4 | 48.3 | 0.03 | 0.03 | 0.03 | 85 | 1011.0 |
| 20260902040100 | 22 | 209 | 6.4 | 14.5 | 0.03 | 0.03 | 0.03 | 86 | 1010.2 |
| 20260902034558 | 22 | 63 | 6.4 | 11.3 | 0.03 | 0.03 | 0.03 | 85 | 1009.9 |
| 20260902033038 | 22 | 360 | 0.0 | 11.3 | 0.00 | 0.00 | 0.00 | 87 | 1010.3 |
| 20260902031536 | 22 | 60 | 3.2 | 9.7 | 0.00 | 0.00 | 0.00 | 86 | 1010.1 |
| 20260902030020 | 22 | 72 | 0.0 | 3.2 | 0.00 | 0.00 | 0.00 | 84 | 1010.4 |
| 20260902024517 | 22 | 71 | 0.0 | 8.0 | 0.00 | 0.00 | 0.00 | 82 | 1010.4 |
| 20260902023105 | 22 | 77 | 6.4 | 9.7 | 0.00 | 0.00 | 0.00 | 81 | 1010.3 |
| 20260902021603 | 22 | 80 | 6.4 | 8.0 | 0.00 | 0.00 | 0.00 | 85 | 1010.0 |
| 20260902020040 | 22 | 67 | 6.4 | 11.3 | 0.00 | 0.00 | 0.00 | 85 | 1010.1 |
| 20260902014543 | 23 | 70 | 6.4 | 8.0 | 0.00 | 0.00 | 0.00 | 84 | 1010.2 |
| 20260902013018 | 23 | 78 | 6.4 | 9.7 | 0.00 | 0.00 | 0.00 | 84 | 1010.1 |
| 20260902011522 | 24 | 80 | 8.0 | 9.7 | 0.00 | 0.00 | 0.00 | 83 | 1010.1 |
| 20260902010118 | 24 | 64 | 6.4 | 11.3 | 0.00 | 0.00 | 0.00 | 83 | 1010.2 |
| 20260902004556 | 25 | 69 | 0.0 | 8.0 | 0.00 | 0.00 | 0.00 | 86 | 1010.2 |
| 20260902003035 | 25 | 66 | 3.2 | 6.4 | 0.00 | 0.00 | 0.00 | 86 | 1010.0 |
| 20260902001532 | 25 | 78 | 4.8 | 8.0 | 0.00 | 0.00 | 0.00 | 84 | 1010.1 |
| 20260902000020 | 25 | 70 | 6.4 | 9.7 | 0.00 | 0.00 | 0.00 | 84 | 1010.2 |
| 20260901234509 | 26 | 59 | 4.8 | 8.0 | 0.00 | 0.00 | 0.00 | 83 | 1010.3 |
| 20260901233059 | 26 | 72 | 4.8 | 8.0 | 0.00 | 0.00 | 0.00 | 84 | 1010.3 |
| 20260901231555 | 26 | 71 | 6.4 | 8.0 | 0.00 | 0.00 | 0.00 | 82 | 1010.3 |
| 20260901230034 | 26 | 61 | 1.6 | 6.4 | 0.00 | 0.00 | 0.00 | 82 | 1010.3 |
| 20260901224539 | 27 | 86 | 4.8 | 8.0 | 0.00 | 0.00 | 0.00 | 82 | 1010.3 |
| 20260901223040 | 27 | 74 | 4.8 | 9.7 | 0.00 | 0.00 | 0.00 | 80 | 1010.2 |
| 20260901221514 | 27 | 75 | 6.4 | 9.7 | 0.00 | 0.00 | 0.00 | 82 | 1010.3 |
| 20260901220013 | 27 | 94 | 6.4 | 9.7 | 0.00 | 0.00 | 0.00 | 81 | 1010.4 |
| 20260901214513 | 27 | 59 | 4.8 | 9.7 | 0.00 | 0.00 | 0.00 | 82 | 1010.4 |
| 20260901213010 | 27 | 80 | 1.6 | 8.0 | 0.00 | 0.00 | 0.00 | 78 | 1010.7 |
| 20260901211517 | 28 | 107 | 4.8 | 12.9 | 0.00 | 0.00 | 0.00 | 75 | 1010.6 |
| 20260901210006 | 28 | 94 | 4.8 | 9.7 | 0.00 | 0.00 | 0.00 | 81 | 1010.5 |
| 20260901204505 | 28 | 103 | 1.6 | 8.0 | 0.00 | 0.00 | 0.00 | 77 | 1010.9 |
| 20260901203045 | 28 | 85 | 4.8 | 11.3 | 0.00 | 0.00 | 0.00 | 71 | 1010.8 |
| 20260901201543 | 29 | 87 | 8.0 | 12.9 | 0.00 | 0.00 | 0.00 | 70 | 1010.5 |
| 20260901200039 | 29 | 88 | 6.4 | 11.3 | 0.00 | 0.00 | 0.00 | 75 | 1010.6 |
| 20260901194522 | 29 | 95 | 3.2 | 8.0 | 0.00 | 0.00 | 0.00 | 76 | 1010.8 |
| 20260901193004 | 29 | 77 | 4.8 | 8.0 | 0.00 | 0.00 | 0.00 | 76 | 1010.8 |
| 20260901191503 | 30 | 104 | 1.6 | 4.8 | 0.00 | 0.00 | 0.00 | 69 | 1011.1 |
| 20260901190101 | 30 | 140 | 0.0 | 6.4 | 0.00 | 0.00 | 0.00 | 71 | 1011.5 |
| 20260901184546 | 30 | 88 | 4.8 | 11.3 | 0.00 | 0.00 | 0.00 | 67 | 1011.3 |
| 20260901183045 | 30 | 117 | 1.6 | 11.3 | 0.00 | 0.00 | 0.00 | 68 | 1011.3 |
| 20260901181543 | 29 | 122 | 3.2 | 8.0 | 0.00 | 0.00 | 0.00 | 70 | 1011.5 |
| 20260901180038 | 29 | 85 | 0.0 | 3.2 | 0.00 | 0.00 | 0.00 | 76 | 1011.9 |
| 20260901174545 | 29 | 75 | 3.2 | 8.0 | 0.00 | 0.00 | 0.00 | 73 | 1012.1 |
| 20260901173033 | 30 | 79 | 1.6 | 4.8 | 0.00 | 0.00 | 0.00 | 70 | 1012.3 |
| 20260901171536 | 29 | 13 | 0.0 | 8.0 | 0.00 | 0.00 | 0.00 | 73 | 1012.5 |
| 20260901170024 | 29 | 86 | 0.0 | 3.2 | 0.00 | 0.00 | 0.00 | 75 | 1012.5 |
| 20260901164515 | 29 | 118 | 3.2 | 6.4 | 0.00 | 0.00 | 0.00 | 75 | 1012.3 |
| 20260901163102 | 29 | 31 | 1.6 | 6.4 | 0.00 | 0.00 | 0.00 | 75 | 1012.2 |
| 20260901161611 | 29 | 329 | 0.0 | 3.2 | 0.00 | 0.00 | 0.00 | 76 | 1012.2 |
| 20260901160038 | 29 | 80 | 1.6 | 4.8 | 0.00 | 0.00 | 0.00 | 74 | 1012.3 |
| 20260901154538 | 28 | 174 | 0.0 | 4.8 | 0.00 | 0.00 | 0.00 | 76 | 1012.3 |
| 20260901153019 | 28 | 115 | 1.6 | 4.8 | 0.00 | 0.00 | 0.00 | 78 | 1012.3 |
| 20260901151518 | 27 | 150 | 0.0 | 3.2 | 0.00 | 0.00 | 0.00 | 78 | 1012.3 |
| 20260901150100 | 27 | 160 | 3.2 | 6.4 | 0.00 | 0.00 | 0.00 | 80 | 1012.4 |
| 20260901144600 | 26 | 205 | 3.2 | 6.4 | 0.00 | 0.00 | 0.00 | 82 | 1012.3 |
| 20260901143043 | 25 | 157 | 1.6 | 6.4 | 0.00 | 0.00 | 0.00 | 84 | 1012.4 |
| 20260901141543 | 25 | 147 | 1.6 | 6.4 | 0.00 | 0.00 | 0.00 | 84 | 1012.6 |
| 20260901140028 | 24 | 132 | 3.2 | 6.4 | 0.00 | 0.00 | 0.00 | 84 | 1012.7 |
| 20260901134522 | 23 | 209 | 0.0 | 0.0 | 0.00 | 0.00 | 0.00 | 87 | 1013.0 |
| 20260901133003 | 21 | 209 | 0.0 | 0.0 | 0.00 | 0.00 | 0.00 | 82 | 1013.1 |
| 20260901131507 | 20 | 209 | 0.0 | 0.0 | 0.00 | 0.00 | 0.00 | 79 | 1012.9 |
| 20260901130056 | -17 | 0.0 | 0.0 | 0.00 | 0.00 | 0.00 | 1012.9 | ||
| 20260901124539 | -17 | 0.0 | 0.0 | 0.00 | 0.00 | 0.00 | 1012.8 | ||
| 20260901123018 | -17 | 0.0 | 0.0 | 0.00 | 0.00 | 0.00 | 1012.8 | ||
| 20260901121517 | -17 | 0.0 | 0.0 | 0.00 | 0.00 | 0.00 | 1012.6 | ||
| 20260901120058 | -17 | 0.0 | 0.0 | 0.00 | 0.00 | 0.00 | 1012.4 | ||
| 20260901114555 | -17 | 0.0 | 0.0 | 0.00 | 0.00 | 0.00 | 1012.4 | ||
| 20260901113056 | -17 | 0.0 | 0.0 | 0.00 | 0.00 | 0.00 | 1012.0 | ||
| 20260901111545 | -17 | 0.0 | 0.0 | 0.00 | 0.00 | 0.00 | 1012.1 | ||
| 20260901110040 | -17 | 0.0 | 0.0 | 0.00 | 0.00 | 0.00 | 1011.8 | ||
| 20260901104536 | -17 | 0.0 | 0.0 | 0.00 | 0.00 | 0.00 | 1012.0 | ||
| 20260901103032 | -17 | 0.0 | 0.0 | 0.00 | 0.00 | 0.00 | 1011.9 | ||
| 20260901101528 | -17 | 0.0 | 0.0 | 0.00 | 0.00 | 0.00 | 1011.7 | ||
| 20260901100009 | 18 | 202 | 0.0 | 0.0 | 0.00 | 0.00 | 0.00 | 59 | 1011.8 |
| 20260901094507 | 18 | 194 | 0.0 | 1.6 | 0.00 | 0.00 | 0.00 | 58 | 1011.8 |
| 20260901093106 | 18 | 194 | 0.0 | 1.6 | 0.00 | 0.00 | 0.00 | 56 | 1011.8 |
| 20260901091549 | 18 | 195 | 0.0 | 4.8 | 0.00 | 0.00 | 0.00 | 59 | 1011.7 |
| 20260901090049 | 18 | 205 | 1.6 | 4.8 | 0.00 | 0.00 | 0.00 | 60 | 1011.8 |
| 20260901084532 | 19 | 204 | 3.2 | 6.4 | 0.00 | 0.00 | 0.00 | 58 | 1011.8 |
| 20260901083035 | 18 | 178 | 0.0 | 1.6 | 0.00 | 0.00 | 0.00 | 55 | 1011.7 |
| 20260901081515 | 18 | 178 | 0.0 | 3.2 | 0.00 | 0.00 | 0.00 | 57 | 1011.5 |
| 20260901080010 | 18 | 209 | 1.6 | 4.8 | 0.00 | 0.00 | 0.00 | 57 | 1011.8 |
| 20260901074552 | 18 | 188 | 1.6 | 4.8 | 0.00 | 0.00 | 0.00 | 65 | 1011.8 |
| 20260901073051 | 18 | 158 | 1.6 | 3.2 | 0.00 | 0.00 | 0.00 | 62 | 1011.8 |
| 20260901071535 | 19 | 155 | 1.6 | 3.2 | 0.00 | 0.00 | 0.00 | 61 | 1011.8 |
| 20260901070032 | 19 | 154 | 0.0 | 1.6 | 0.00 | 0.00 | 0.00 | 56 | 1011.9 |
| 20260901064523 | 19 | 153 | 1.6 | 3.2 | 0.00 | 0.00 | 0.00 | 62 | 1012.1 |
| 20260901063011 | 18 | 154 | 0.0 | 3.2 | 0.00 | 0.00 | 0.00 | 70 | 1012.1 |
| 20260901061554 | 20 | 311 | 0.0 | 1.6 | 0.00 | 0.00 | 0.00 | 77 | 1012.2 |
| 20260901060050 | 20 | 311 | 0.0 | 0.0 | 0.00 | 0.00 | 0.00 | 76 | 1012.3 |
| 20260901054533 | 20 | 311 | 0.0 | 0.0 | 0.00 | 0.00 | 0.00 | 85 | 1012.1 |
| 20260901053026 | 20 | 311 | 0.0 | 0.0 | 0.00 | 0.00 | 0.00 | 82 | 1011.8 |
| 20260901051510 | 20 | 311 | 0.0 | 1.6 | 0.00 | 0.00 | 0.00 | 82 | 1011.7 |
| 20260901050006 | 21 | 311 | 0.0 | 1.6 | 0.00 | 0.00 | 0.00 | 83 | 1011.6 |
| 20260901044546 | 21 | 321 | 1.6 | 1.6 | 0.00 | 0.00 | 0.00 | 86 | 1011.5 |